Zurück zum Katalog

CZ-4 DEB

AktivSSO
NORAD 26241·DEBRIS·🇨🇳 China

Gestartet Oct 14, 1999 von Taiyuan Satellite Launch Center

Loading…

Nächste Überflüge (nächste 24 Stunden)

TLE

AktuellSource: Space-Track

Epoche: Sep 14, 2026, 07:53 UTC

1 26241U 99057EF  26257.32862450  .00000161  00000-0  68983-4 0  9993
2 26241  98.8955 280.2118 0109166 129.0972 298.4252 14.34683277384468

Verfolge CZ-4 DEB in Echtzeit mit AllMySat

Download on the App Store